FW0428 Weather Reports


Display with metric or nautical units.
time (UTC)temp
F
wind
direction
speed
MPH
gust
MPH
rain 1hr
in
rain 24hr
in
rain mn
in
humidity
%
barometer
mb
20210614124526 79 117 0.0 2.0 0.00 0.00 0.00 82 1012.6
20210614103214 76 265 0.0 0.0 0.00 0.00 0.00 85 1011.9
20210614100042 77 265 0.0 1.0 0.00 0.00 0.00 84 1011.7
20210614091600 77 236 1.0 3.0 0.00 0.00 0.00 82 1011.8
20210614090120 77 137 1.0 2.0 0.00 0.00 0.00 83 1012.0
20210614083046 79 94 1.0 3.0 0.00 0.00 0.00 84 1011.7
20210614070131 80 229 0.0 4.0 0.00 0.00 0.00 89 1011.8
20210614064609 80 355 0.0 1.0 0.00 0.00 0.00 88 1011.9
20210614063014 81 355 0.0 2.0 0.00 0.00 0.00 88 1012.0
20210614061644 81 355 1.0 2.0 0.00 0.00 0.00 88 1012.1
20210614060209 81 355 0.0 0.0 0.00 0.00 0.00 86 1012.6
20210614054506 81 355 0.0 0.0 0.00 0.00 0.00 86 1012.5
20210614053200 82 355 0.0 1.0 0.00 0.00 0.00 85 1012.4
20210614051511 82 355 0.0 1.0 0.00 0.00 0.00 84 1012.4
20210614050104 82 355 0.0 0.0 0.00 0.00 0.00 83 1012.3
20210613223036 93 215 1.0 6.0 0.00 0.00 0.00 60 1010.9
20210613204612 93 153 0.0 3.0 0.00 0.00 0.00 56 1011.5
20210613201538 94 100 1.0 4.0 0.00 0.00 0.00 55 1011.7
20210613190159 93 40 0.0 4.0 0.00 0.00 0.00 58 1012.4
20210613184722 92 318 1.0 5.0 0.00 0.00 0.00 59 1012.4
20210613173044 91 103 1.0 6.0 0.00 0.00 0.00 61 1013.2
20210613143144 83 360 1.0 5.0 0.00 0.00 0.00 81 1013.9
20210613141638 82 259 1.0 6.0 0.00 0.00 0.00 83 1013.7
20210613134539 80 279 1.0 6.0 0.00 0.00 0.00 87 1013.4